FW0689 Weather Reports


Display with metric or nautical units.
time (UTC)temp
F
wind
direction
speed
MPH
gust
MPH
rain 1hr
in
rain 24hr
in
rain mn
in
humidity
%
barometer
mb
20260905114056 63 249 0.0 0.0 0.00 0.00 0.00 41 1022.5
20260905105245 63 258 0.0 0.0 0.00 0.00 0.00 40 1022.5
20260905093605 63 248 0.0 0.0 0.00 0.00 0.00 41 1022.3
20260905092700 60 241 0.0 0.0 0.00 0.00 0.00 42 1021.7
20260905075241 56 232 0.0 0.0 0.00 0.00 0.00 44 1021.2
20260905072431 55 219 0.0 0.0 0.00 0.00 0.00 44 1021.0
20260904154042 65 244 0.0 0.0 0.00 0.00 0.00 40 1015.0
20260904154033 65 249 0.0 0.0 0.00 0.00 0.00 40 1014.9
20260904145523 65 266 0.0 0.0 0.00 0.00 0.00 40 1015.1
20260904144524 65 267 0.0 0.0 0.00 0.00 0.00 40 1015.0
20260904143522 64 261 0.0 0.0 0.00 0.00 0.00 40 1014.9
20260904142524 64 266 0.0 0.0 0.00 0.00 0.00 41 1014.6
20260904141524 64 274 0.0 0.0 0.00 0.00 0.00 41 1014.2
20260904140524 64 278 0.0 0.0 0.00 0.00 0.00 41 1014.3
20260904135539 63 272 0.0 0.0 0.00 0.00 0.00 41 1014.2
20260904134624 63 276 0.0 0.0 0.00 0.00 0.00 41 1014.3
20260904133625 63 281 0.0 0.0 0.00 0.00 0.00 41 1014.1
20260904132722 63 277 0.0 0.0 0.00 0.00 0.00 41 1014.2
20260904131724 63 268 0.0 0.0 0.00 0.00 0.00 41 1013.7
20260904130823 64 249 0.0 0.0 0.00 0.00 0.00 41 1014.2
20260904125921 64 268 0.0 0.0 0.00 0.00 0.00 41 1013.9
20260904124922 64 259 0.0 0.0 0.00 0.00 0.00 40 1013.9
20260904123922 64 259 0.0 0.0 0.00 0.00 0.00 41 1013.9
20260904122923 64 270 0.0 0.0 0.00 0.00 0.00 41 1014.0
20260904121923 64 249 0.0 0.0 0.00 0.00 0.00 41 1013.9
20260904120923 64 268 0.0 0.0 0.00 0.00 0.00 41 1013.9
20260904115923 64 250 0.0 0.0 0.00 0.00 0.00 41 1013.7